Location: Recife
(8.0585°S, 34.8848°W)
Time: 12:20:18
(UTC-03:00)

Injun/Solrad 3 - Pass Details

Date: 18 April 2026
Orbit: 868 x 988 km, 66.8° (Epoch: 12 May)

Event Time Altitude Azimuth Distance (km) Brightness Sun altitude
Rises 08:32:24 0° 318° (NW) 3,680 10.9 44.4°
Reaches altitude 10° 08:35:18 10° 307° (NW) 2,731 10.2 45.1°
Maximum altitude 08:40:45 29° 248° (WSW) 1,691 9.2 46.3°
Drops below altitude 10° 08:46:09 10° 189° (S) 2,700 10.2 47.5°
Sets 08:49:02 0° 178° (S) 3,631 10.8 48.2°
